WAT33 EDDS-LQBK

Flight info

Callsign WAT33
Flight time 1h 8m
Altitude 37000
Route TEDGO1B TEDGO DCT BABEG DCT GESUC DCT BADVI DCT KUMOM DCT OBEDI DCT ABIRI DCT PODET DCT NOVLO
Aircraft B739/M-SDE2E3FGHIRWXY/LB1

Departure

Time 2026-04-24 13:19
Airport Stuttgart Airport (EDDS)

Arrival

Time 2026-04-24 14:27
Airport Banja Luka International Airport (LQBK)
Time Latitude Longitude Altitude Speed Heading
2026-04-24 12:57 48.68950 9.20220 1284 ft 0 kts 164°
2026-04-24 13:16 48.68947 9.20221 1287 ft 2 kts 164°
2026-04-24 13:16 48.68920 9.20232 1288 ft 6 kts 164°
2026-04-24 13:16 48.68872 9.20204 1286 ft 10 kts 241°
2026-04-24 13:17 48.68846 9.20079 1288 ft 14 kts 253°
2026-04-24 13:17 48.68782 9.19968 1284 ft 15 kts 192°
2026-04-24 13:17 48.68695 9.19982 1287 ft 9 kts 165°
2026-04-24 13:17 48.68637 9.20012 1287 ft 9 kts 154°
2026-04-24 13:18 48.68597 9.20077 1284 ft 9 kts 105°
2026-04-24 13:18 48.68608 9.20192 1287 ft 20 kts 75°
2026-04-24 13:18 48.68714 9.20749 1284 ft 90 kts 74°
2026-04-24 13:18 48.68947 9.21971 1284 ft 149 kts 74°
2026-04-24 13:19 48.69279 9.23677 1439 ft 181 kts 71°
2026-04-24 13:19 48.69596 9.25534 2090 ft 185 kts 72°
2026-04-24 13:19 48.69935 9.27414 2876 ft 181 kts 72°
2026-04-24 13:19 48.70305 9.29293 3410 ft 197 kts 69°
2026-04-24 13:20 48.70725 9.31416 3586 ft 222 kts 70°
2026-04-24 13:20 48.71179 9.33764 3990 ft 240 kts 76°
2026-04-24 13:20 48.71128 9.36345 4407 ft 259 kts 107°
2026-04-24 13:20 48.70101 9.38701 4924 ft 277 kts 137°
2026-04-24 13:21 48.68827 9.40900 5698 ft 282 kts 115°
2026-04-24 13:21 48.68360 9.43733 6607 ft 278 kts 93°
2026-04-24 13:21 48.68205 9.46682 7319 ft 284 kts 92°
2026-04-24 13:21 48.68071 9.49665 8159 ft 285 kts 91°
2026-04-24 13:22 48.67936 9.52635 8971 ft 288 kts 92°
2026-04-24 13:22 48.67789 9.55681 9844 ft 292 kts 92°
2026-04-24 13:22 48.67630 9.58773 10559 ft 299 kts 92°
2026-04-24 13:22 48.67463 9.62030 10782 ft 323 kts 92°
2026-04-24 13:23 48.67217 9.65533 10948 ft 348 kts 99°
2026-04-24 13:23 48.66435 9.69123 11141 ft 371 kts 113°
2026-04-24 13:23 48.65275 9.72693 11578 ft 383 kts 115°
2026-04-24 13:23 48.64038 9.76290 12227 ft 387 kts 116°
2026-04-24 13:24 48.62777 9.79911 12884 ft 390 kts 116°
2026-04-24 13:24 48.61510 9.83565 13511 ft 394 kts 116°
2026-04-24 13:24 48.60241 9.87261 14124 ft 398 kts 116°
2026-04-24 13:24 48.58978 9.90958 14684 ft 401 kts 116°
2026-04-24 13:25 48.57699 9.94717 15292 ft 403 kts 116°
2026-04-24 13:25 48.56416 9.98496 15873 ft 406 kts 116°
2026-04-24 13:25 48.55120 10.02315 16447 ft 409 kts 116°
2026-04-24 13:25 48.53820 10.06142 17036 ft 411 kts 116°
2026-04-24 13:26 48.52511 10.09991 17607 ft 414 kts 116°
2026-04-24 13:26 48.51189 10.13871 18154 ft 417 kts 116°
2026-04-24 13:26 48.49858 10.17772 18673 ft 419 kts 116°
2026-04-24 13:26 48.48517 10.21696 19136 ft 421 kts 116°
2026-04-24 13:27 48.47170 10.25632 19602 ft 424 kts 116°
2026-04-24 13:27 48.45813 10.29592 20069 ft 427 kts 116°
2026-04-24 13:27 48.44445 10.33578 20565 ft 429 kts 116°
2026-04-24 13:27 48.43067 10.37585 21039 ft 432 kts 116°
2026-04-24 13:28 48.41902 10.40967 21415 ft 434 kts 116°
2026-04-24 13:28 48.40541 10.44915 21863 ft 437 kts 116°
2026-04-24 13:28 48.39154 10.48932 22304 ft 439 kts 116°
2026-04-24 13:28 48.37735 10.53033 22732 ft 442 kts 116°
2026-04-24 13:29 48.36311 10.57144 23170 ft 444 kts 116°
2026-04-24 13:29 48.34879 10.61274 23601 ft 447 kts 116°
2026-04-24 13:29 48.33436 10.65429 23961 ft 449 kts 116°
2026-04-24 13:29 48.31977 10.69623 24323 ft 452 kts 116°
2026-04-24 13:30 48.30480 10.73803 24683 ft 455 kts 119°
2026-04-24 13:30 48.28747 10.77792 25033 ft 458 kts 123°
2026-04-24 13:30 48.26930 10.81671 25386 ft 460 kts 124°
2026-04-24 13:30 48.25058 10.85577 25743 ft 462 kts 124°
2026-04-24 13:31 48.23174 10.89501 26069 ft 465 kts 124°
2026-04-24 13:31 48.21287 10.93455 26397 ft 467 kts 124°
2026-04-24 13:31 48.19401 10.97433 26735 ft 469 kts 123°
2026-04-24 13:31 48.17513 11.01439 27067 ft 471 kts 123°
2026-04-24 13:32 48.15625 11.05454 27371 ft 473 kts 123°
2026-04-24 13:32 48.13724 11.09496 27702 ft 475 kts 123°
2026-04-24 13:32 48.11812 11.13560 28033 ft 477 kts 123°
2026-04-24 13:32 48.09894 11.17630 28416 ft 477 kts 123°
2026-04-24 13:33 48.07982 11.21680 28884 ft 476 kts 123°
2026-04-24 13:33 48.06096 11.25667 29388 ft 474 kts 123°
2026-04-24 13:33 48.04171 11.29728 29886 ft 472 kts 123°
2026-04-24 13:33 48.02273 11.33728 30308 ft 472 kts 123°
2026-04-24 13:34 48.00399 11.37672 30675 ft 471 kts 123°
2026-04-24 13:34 47.98502 11.41659 31069 ft 469 kts 123°
2026-04-24 13:34 47.96615 11.45620 31446 ft 468 kts 123°
2026-04-24 13:34 47.94728 11.49573 31814 ft 467 kts 123°
2026-04-24 13:35 47.92839 11.53525 32163 ft 466 kts 123°
2026-04-24 13:35 47.90955 11.57461 32514 ft 465 kts 123°
2026-04-24 13:35 47.89078 11.61378 32857 ft 464 kts 123°
2026-04-24 13:35 47.87201 11.65288 33186 ft 463 kts 123°
2026-04-24 13:36 47.85326 11.69190 33486 ft 463 kts 123°
2026-04-24 13:36 47.83449 11.73089 33811 ft 462 kts 123°
2026-04-24 13:36 47.81579 11.76969 34124 ft 461 kts 123°
2026-04-24 13:36 47.79710 11.80842 34380 ft 461 kts 123°
2026-04-24 13:37 47.77838 11.84717 34608 ft 461 kts 123°
2026-04-24 13:37 47.75963 11.88594 34844 ft 461 kts 123°
2026-04-24 13:37 47.74090 11.92457 35099 ft 461 kts 123°
2026-04-24 13:37 47.72286 11.96337 35327 ft 459 kts 120°
2026-04-24 13:38 47.70601 12.00391 35541 ft 459 kts 118°
2026-04-24 13:38 47.68983 12.04469 35781 ft 458 kts 118°
2026-04-24 13:38 47.67375 12.08562 36026 ft 457 kts 118°
2026-04-24 13:38 47.65766 12.12627 36243 ft 457 kts 118°
2026-04-24 13:39 47.64141 12.16684 36432 ft 457 kts 118°
2026-04-24 13:39 47.62504 12.20733 36634 ft 457 kts 118°
2026-04-24 13:39 47.60865 12.24767 36860 ft 457 kts 118°
2026-04-24 13:39 47.59226 12.28795 37087 ft 454 kts 118°
2026-04-24 13:40 47.55997 12.36841 37132 ft 457 kts 115°
2026-04-24 13:40 47.53703 12.45537 37125 ft 451 kts 106°
2026-04-24 13:41 47.51703 12.54320 37121 ft 450 kts 106°
2026-04-24 13:41 47.49674 12.63074 37115 ft 449 kts 107°
2026-04-24 13:42 47.47623 12.71726 37126 ft 448 kts 107°
2026-04-24 13:42 47.45545 12.80416 37104 ft 449 kts 107°
2026-04-24 13:43 47.43457 12.89109 37113 ft 448 kts 107°
2026-04-24 13:43 47.41364 12.97792 37115 ft 448 kts 107°
2026-04-24 13:44 47.39265 13.06470 37109 ft 449 kts 107°
2026-04-24 13:44 47.37157 13.15157 37117 ft 450 kts 107°
2026-04-24 13:45 47.35056 13.23780 37115 ft 449 kts 107°
2026-04-24 13:45 47.32929 13.32454 37120 ft 449 kts 107°
2026-04-24 13:46 47.30790 13.39479 37117 ft 452 kts 113°
2026-04-24 13:46 47.27941 13.47760 37103 ft 454 kts 114°
2026-04-24 13:47 47.25081 13.56040 37096 ft 453 kts 113°
2026-04-24 13:47 47.22251 13.64343 37106 ft 453 kts 113°
2026-04-24 13:48 47.19437 13.72643 37092 ft 453 kts 112°
2026-04-24 13:48 47.16617 13.80948 37079 ft 453 kts 112°
2026-04-24 13:49 47.13791 13.89240 37072 ft 455 kts 112°
2026-04-24 13:49 47.10971 13.97485 37059 ft 454 kts 112°
2026-04-24 13:50 47.08138 14.05739 37064 ft 453 kts 112°
2026-04-24 13:50 47.05295 14.14000 37060 ft 452 kts 112°
2026-04-24 13:51 47.02449 14.22243 37052 ft 452 kts 113°
2026-04-24 13:51 46.99620 14.30409 37049 ft 451 kts 112°
2026-04-24 13:52 46.96777 14.38590 37043 ft 450 kts 113°
2026-04-24 13:52 46.93950 14.46701 37037 ft 450 kts 113°
2026-04-24 13:53 46.91099 14.54857 37033 ft 449 kts 113°
2026-04-24 13:53 46.88248 14.62989 37042 ft 449 kts 113°
2026-04-24 13:54 46.85392 14.71108 37050 ft 449 kts 113°
2026-04-24 13:54 46.82546 14.79176 37032 ft 449 kts 113°
2026-04-24 13:55 46.79660 14.87336 37032 ft 449 kts 113°
2026-04-24 13:55 46.76604 14.95226 37027 ft 452 kts 123°
2026-04-24 13:56 46.72145 15.01745 37030 ft 459 kts 138°
2026-04-24 13:56 46.67036 15.07389 37031 ft 461 kts 139°
2026-04-24 13:57 46.61888 15.13034 37030 ft 464 kts 139°
2026-04-24 13:57 46.56737 15.18760 37034 ft 466 kts 138°
2026-04-24 13:58 46.51630 15.24465 37047 ft 467 kts 138°
2026-04-24 13:58 46.46468 15.30224 37041 ft 466 kts 138°
2026-04-24 13:59 46.41325 15.35943 37035 ft 464 kts 138°
2026-04-24 13:59 46.36213 15.41613 37048 ft 462 kts 138°
2026-04-24 14:00 46.31112 15.47258 37052 ft 461 kts 138°
2026-04-24 14:00 46.26012 15.52890 37043 ft 461 kts 138°
2026-04-24 14:01 46.20906 15.58516 37051 ft 461 kts 138°
2026-04-24 14:01 46.15913 15.64211 37039 ft 457 kts 132°
2026-04-24 14:02 46.11409 15.70625 37046 ft 455 kts 129°
2026-04-24 14:02 46.06989 15.77140 37046 ft 454 kts 130°
2026-04-24 14:03 46.02533 15.83618 37057 ft 455 kts 130°
2026-04-24 14:03 45.98050 15.90051 37055 ft 455 kts 130°
2026-04-24 14:04 45.93559 15.96456 37056 ft 455 kts 130°
2026-04-24 14:04 45.89053 16.02865 37051 ft 455 kts 130°
2026-04-24 14:05 45.84551 16.09256 37049 ft 455 kts 130°
2026-04-24 14:05 45.80050 16.15632 37045 ft 455 kts 130°
2026-04-24 14:06 45.77790 16.18829 36759 ft 460 kts 130°
2026-04-24 14:06 45.75498 16.22072 36153 ft 463 kts 131°
2026-04-24 14:06 45.73232 16.25269 35414 ft 462 kts 131°
2026-04-24 14:06 45.70938 16.28500 34537 ft 465 kts 131°
2026-04-24 14:07 45.68632 16.31744 33867 ft 462 kts 131°
2026-04-24 14:07 45.66332 16.34975 32784 ft 466 kts 131°
2026-04-24 14:07 45.64017 16.38225 31957 ft 466 kts 132°
2026-04-24 14:07 45.61698 16.41477 31048 ft 467 kts 132°
2026-04-24 14:08 45.59380 16.44723 30290 ft 466 kts 133°
2026-04-24 14:08 45.57063 16.47962 29385 ft 466 kts 133°
2026-04-24 14:08 45.54765 16.51171 28774 ft 459 kts 133°
2026-04-24 14:08 45.52494 16.54336 28129 ft 454 kts 133°
2026-04-24 14:09 45.50247 16.57467 27473 ft 450 kts 133°
2026-04-24 14:09 45.48016 16.60571 26861 ft 445 kts 133°
2026-04-24 14:09 45.45812 16.63636 26236 ft 441 kts 133°
2026-04-24 14:09 45.43653 16.66636 25629 ft 437 kts 133°
2026-04-24 14:10 45.41479 16.69652 25030 ft 434 kts 133°
2026-04-24 14:10 45.39321 16.72643 24428 ft 431 kts 133°
2026-04-24 14:10 45.37178 16.75611 23823 ft 428 kts 133°
2026-04-24 14:10 45.35044 16.78562 23148 ft 426 kts 133°
2026-04-24 14:11 45.32922 16.81494 22492 ft 423 kts 133°
2026-04-24 14:11 45.30822 16.84391 21896 ft 419 kts 133°
2026-04-24 14:11 45.26673 16.90110 20724 ft 412 kts 133°
2026-04-24 14:12 45.24622 16.92927 20151 ft 409 kts 134°
2026-04-24 14:12 45.22322 16.95310 19562 ft 412 kts 152°
2026-04-24 14:12 45.19609 16.96603 19042 ft 411 kts 164°
2026-04-24 14:12 45.16824 16.97519 18439 ft 411 kts 166°
2026-04-24 14:13 45.14037 16.98394 17820 ft 408 kts 166°
2026-04-24 14:13 45.11307 16.99265 17235 ft 406 kts 165°
2026-04-24 14:13 45.08562 17.00167 16658 ft 403 kts 165°
2026-04-24 14:13 45.05842 17.01081 16094 ft 400 kts 165°
2026-04-24 14:14 45.03143 17.01995 15545 ft 397 kts 165°
2026-04-24 14:14 45.00463 17.02903 14998 ft 395 kts 165°
2026-04-24 14:14 44.95217 17.04989 13900 ft 388 kts 150°
2026-04-24 14:15 44.93106 17.07286 13330 ft 381 kts 129°
2026-04-24 14:15 44.91628 17.10344 12726 ft 375 kts 113°
2026-04-24 14:15 44.90848 17.13755 12193 ft 368 kts 99°
2026-04-24 14:15 44.90351 17.17285 11650 ft 366 kts 98°
2026-04-24 14:16 44.89884 17.20795 11122 ft 363 kts 98°
2026-04-24 14:16 44.89397 17.24263 10833 ft 354 kts 99°
2026-04-24 14:16 44.88907 17.27608 10675 ft 342 kts 99°
2026-04-24 14:17 44.87954 17.33996 10316 ft 323 kts 99°
2026-04-24 14:17 44.87497 17.37053 10180 ft 314 kts 99°
2026-04-24 14:17 44.86621 17.42912 9951 ft 296 kts 99°
2026-04-24 14:18 44.86196 17.45764 9437 ft 301 kts 99°
2026-04-24 14:18 44.85768 17.48631 9103 ft 299 kts 99°
2026-04-24 14:18 44.85334 17.51503 8737 ft 299 kts 99°
2026-04-24 14:18 44.84897 17.54362 8388 ft 299 kts 102°
2026-04-24 14:19 44.84386 17.56207 8119 ft 302 kts 120°
2026-04-24 14:19 44.82371 17.58857 7666 ft 303 kts 152°
2026-04-24 14:19 44.80444 17.60060 7322 ft 302 kts 162°
2026-04-24 14:19 44.78388 17.60344 6944 ft 296 kts 190°
2026-04-24 14:20 44.76508 17.59381 6631 ft 283 kts 213°
2026-04-24 14:20 44.75025 17.57656 6325 ft 273 kts 229°
2026-04-24 14:20 44.73804 17.55653 6000 ft 266 kts 233°
2026-04-24 14:20 44.72658 17.53684 5885 ft 255 kts 233°
2026-04-24 14:21 44.71729 17.51619 5707 ft 245 kts 255°
2026-04-24 14:21 44.71537 17.49325 5528 ft 232 kts 276°
2026-04-24 14:21 44.71760 17.47108 5290 ft 227 kts 282°
2026-04-24 14:21 44.72043 17.44938 4998 ft 225 kts 282°
2026-04-24 14:22 44.72320 17.42802 4829 ft 219 kts 282°
2026-04-24 14:22 44.72584 17.40694 4716 ft 219 kts 281°
2026-04-24 14:22 44.73325 17.36472 4219 ft 224 kts 305°
2026-04-24 14:23 44.74453 17.35060 3968 ft 217 kts 333°
2026-04-24 14:23 44.75880 17.34445 3693 ft 214 kts 349°
2026-04-24 14:23 44.77292 17.34092 3438 ft 202 kts 348°
2026-04-24 14:23 44.78628 17.33758 3177 ft 189 kts 349°
2026-04-24 14:24 44.79903 17.33433 2936 ft 184 kts 348°
2026-04-24 14:24 44.81153 17.33114 2746 ft 180 kts 348°
2026-04-24 14:24 44.82402 17.32796 2528 ft 185 kts 348°
2026-04-24 14:24 44.83684 17.32460 2251 ft 187 kts 349°
2026-04-24 14:25 44.84525 17.32255 2076 ft 182 kts 347°
2026-04-24 14:25 44.86113 17.31849 1760 ft 167 kts 347°
2026-04-24 14:25 44.87203 17.31549 1634 ft 154 kts 348°
2026-04-24 14:25 44.88249 17.31309 1442 ft 151 kts 348°
2026-04-24 14:26 44.89278 17.31019 1222 ft 150 kts 347°
2026-04-24 14:26 44.90302 17.30741 1066 ft 150 kts 348°
2026-04-24 14:26 44.91342 17.30474 827 ft 155 kts 348°
2026-04-24 14:26 44.92403 17.30199 627 ft 153 kts 348°
2026-04-24 14:27 44.93090 17.30023 452 ft 148 kts 349°
2026-04-24 14:27 44.94282 17.29717 390 ft 105 kts 349°
2026-04-24 14:27 44.94798 17.29586 388 ft 57 kts 350°
2026-04-24 14:27 44.95115 17.29507 386 ft 32 kts 351°
2026-04-24 14:28 44.95200 17.29510 385 ft 11 kts
2026-04-24 14:28 44.95217 17.29470 385 ft 4 kts 208°
2026-04-24 14:28 44.95170 17.29479 386 ft 7 kts 168°
2026-04-24 14:28 44.95113 17.29496 386 ft 10 kts 168°
2026-04-24 14:29 44.95034 17.29518 387 ft 13 kts 168°
2026-04-24 14:29 44.94971 17.29536 388 ft 15 kts 168°
2026-04-24 14:29 44.94860 17.29566 388 ft 18 kts 169°
2026-04-24 14:29 44.94732 17.29599 390 ft 20 kts 169°
2026-04-24 14:30 44.94597 17.29633 392 ft 20 kts 169°
2026-04-24 14:30 44.94452 17.29671 393 ft 22 kts 169°
2026-04-24 14:30 44.94297 17.29712 395 ft 23 kts 169°
2026-04-24 14:30 44.94136 17.29754 397 ft 24 kts 171°
2026-04-24 14:31 44.93961 17.29797 395 ft 27 kts 169°
2026-04-24 14:31 44.93776 17.29849 399 ft 27 kts 166°
2026-04-24 14:31 44.93618 17.29948 400 ft 19 kts 136°
2026-04-24 14:31 44.93538 17.30092 401 ft 18 kts 126°
2026-04-24 14:32 44.93462 17.30174 404 ft 13 kts 169°
2026-04-24 14:32 44.93418 17.30224 405 ft 7 kts 97°
2026-04-24 14:32 44.93400 17.30259 405 ft 0 kts 178°